Regional Weather Roundup
Issued by NWS Charleston, SC

Current Version | Previous Version | Graphics & Text | Print | Product List | Glossary On
Versions: 1 2 3 4 5 6 7 8 9 10 11 12 13 14 15 16 17 18 19 20 21 22 23 24 25 26 27 28 29 30 31 32 33 34 35 36 37 38 39 40 41 42 43 44 45 46 47 48 49 50
361 ASUS42 KCHS 092127 RWRCHS REGIONAL WEATHER ROUNDUP NATIONAL WEATHER SERVICE CHARLESTON SC 400 PM EST TUE FEB 09 2016 NOTE: "FAIR" INDICATES FEW OR NO CLOUDS BELOW 12,000 FEET WITH NO SIGNIFICANT WEATHER AND/OR OBSTRUCTIONS TO VISIBILITY. NOT ALL STATIONS ARE QUALITY CONTROLLED BY THE NATIONAL WEATHER SERVICE. USE DATA WITH CAUTION...ESPECIALLY DEWPOINT OBSERVATIONS. SCZ027-030-031-034>040-042>050-092200- ...SOUTHEAST SOUTH CAROLINA... CITY SKY/WX TMP DP RH WIND PRES REMARKS N CHARLESTON PTSUNNY 45 22 40 W16G29 29.80R WATERFRONT PRK N/A 44 28 53 W8 29.63S MOUNT PLEASANT CLOUDY 45 27 49 W14G24 29.81R JOHNS ISLAND CLOUDY 45 25 45 SW13G23 29.82R PINOPOLIS N/A 43 28 56 W21 29.71R MONCKS CORNER CLOUDY 39 21 48 W8G16 29.80R WCI 34 SUMMERVILLE CLOUDY 43 27 52 W14G21 29.83R BEAUFORT MCAS PTSUNNY 45 22 40 W17G28 29.83R BEAUFORT ARPT FAIR 45 23 42 W17G26 29.83R HILTON HEAD IS NOT AVBL WALTERBORO CLOUDY 45 23 42 W14G20 29.84R ALLENDALE CLOUDY 41 21 45 CALM 29.84R ...SOUTHERN MIDLANDS AND PEE DEE... CITY SKY/WX TMP DP RH WIND PRES REMARKS GEORGETOWN NOT AVBL KINGSTREE NOT AVBL ORANGEBURG CLOUDY 40 23 50 W16G24 29.80R WCI 31 BARNWELL CLOUDY 41 23 48 W15G21 29.84R AIKEN MIX PCPN 36 23 60 W12 29.84R WCI 27 MANNING CLOUDY 39 23 52 W13G23 29.80R WCI 32 COLUMBIA FLURRIES 40 23 50 W15 29.79R WCI 32 SUMTER CLOUDY 41 22 47 W18G25 29.75R FLORENCE CLOUDY 41 23 48 W17G28 29.75R MYRTLE BEACH PTSUNNY 45 23 42 W17G24 29.75R N MYRTLE BEACH CLOUDY 45 25 45 W10G23 29.73R $$ GAZ063-065-086>088-099>101-113>116-118-119-134>141-150-092200- ...SOUTHEAST GEORGIA... CITY SKY/WX TMP DP RH WIND PRES REMARKS SAVANNAH ARPT PTSUNNY 48 22 35 NW17 29.84R HUNTER AAF MOSUNNY 48 23 37 W20 29.81R FORT STEWART MOSUNNY 49 21 32 W22G36 29.82R STATESBORO CLOUDY 47 17 29 W15 29.85R SYLVANIA CLOUDY 44 26 49 W17G25 29.86R CLAXTON MOCLDY 47 28 47 SW8G17 29.85R ...CSRA...CENTRAL AND FAR SOUTHEAST GEORGIA... CITY SKY/WX TMP DP RH WIND PRES REMARKS THOMSON CLOUDY 40 25 55 W10G17 29.88R WCI 34 AUGUSTA-BUSH CLOUDY 40 20 44 W16G23 29.84R WCI 31 AUGUSTA-DANIEL CLOUDY 39 19 44 VRB5 29.83R WCI 36 SWAINSBORO CLOUDY 43 23 45 W13G22 29.85S VIDALIA CLOUDY 45 23 42 W7G17 29.85R EASTMAN CLOUDY 47 21 35 NW12G20 29.89R HAZLEHURST MOCLDY 50 21 32 W9G21 29.84R ALMA MOSUNNY 50 21 32 W13G22 29.85S WAYCROSS SUNNY 55 26 32 W16G23 29.86S JESUP FAIR 52 27 37 NW15G25 29.86R BAXLEY PTSUNNY 52 23 32 W13G21 29.86R BRUNSWICK SUNNY 52 23 32 W17G29 29.87S SAINT SIMONS SUNNY 51 21 30 W21G33 29.85R $$ SCZ027-028-034-036>038-045-046-048>050-GAZ119-141-092200- ...LAKE AND SUPPLEMENTAL COASTAL OBSERVATIONS... STATION/POSITION TIME TEMP WIND PRES WAVE SWELL AIR SEA DIR/SP/G HT/PER HT/PER/DIR (UTC) (F) (DEG/KT/KT) (MB) (FT/S) (FT/S/D) WINYAH BAY 2000 44 270/ 13 1006.0S LAKE MURRAY 2000 40 260/ 18/ 26 1007.1S ACE BASIN NERRS 2000 44 260/ 8 1009.0S FORT PULASKI 2100 46 51 270/ 19/ 26 1010.4R SAPELO ISLAND 2100 50 270/ 20 1010.0S $$ ANZ835-935-AMZ111-154-330-350-352-354-370-450-454-472-092200- ...C-MAN AND BUOY OBSERVATIONS... STATION/POSITION TIME TEMP WIND PRES WAVE SWELL AIR SEA DIR/SP/G HT/PER HT/PER/DIR (UTC) (F) (DEG/KT/KT) (MB) (FT/S) (FT/S/D) BUOY 41004 2050 48 65 270/ 23/ 29 1007.6R 9/ 7 2/13 BUOY 41008 2050 49 54 270/ 23/ 29 1010.4S 5/ 5 FOLLY BEACH CMAN 2100 43 250/ 12/ 18 1009.4R CAPERS NEARSHORE 2008 45 290/ 19/ 25 1007.8R FRIPP NEARSHORE 2000 45 270/ 29/ 31 1009.3R STATION/POSITION TIME TEMP WIND PRES WAVE SWELL AIR SEA DIR/SP/G HT/PER HT/PER/DIR (UTC) (F) (DEG/KT/KT) (MB) (FT/S) (FT/S/D) 5E ST. MARYS GA 2021 56 N/A 4/ 4 2/ 90/17 FRYING PAN BUOY 2100 47 53 260/ 23/ 29 1006.9R BUOY 41025 2050 48 74 290/ 14/ 21 1003.5R 10/15 8/ 80/15 CAPE LOOKOUT NC NOT AVBL BUOY 41002 2050 56 69 270/ 25/ 33 N/A 14/11 10/260/11 BUOY 41010 2020 58 72 1013.5F ST AUGUSTINE FL 2100 56 57 260/ 22/ 30 1012.1R $$

USA.gov is the U.S. government's official web portal to all federal, state and local government web resources and services.